Find Starlink 32668

NORAD ID: 62212 Int'l Des: 2024-229 Owner: SPXS Country: US Constellation: starlink operational
LEOCIRCULAR

現在のビュー

3D地球を読み込み中...

About Starlink 32668

Starlink 32668 (NORAD 62212) is a starlink constellation satellite (v2 mini) launched Dec 4, 2024 by SPXS of US. It operates in LEO, CIRCULAR orbit with a mass of 730.00 kg.

次回通過

Passes for default location (London). Set your location on the main map for personalized predictions.

高度履歴

Loading altitude history...

軌道要素

1 62212U 24229W 26228.65647333 .00003532 00000-0 13782-3 0 9996
2 62212 43.0037 84.0743 0001222 272.4309 87.6403 15.27580350 95066
Epoch: Aug 16, 2026 • Age: 4 hours

現在のステータス

高度 486.5 km
遠地点 / 近地点 N/A
速度 7.63 km/s
衛星直下点 40.75°N, 59.16°W
打ち上げ日 Dec 4, 2024
運用期間 1.6 years
タイプ internet

技術仕様

分類 Payload
質量 730.00 kg
乾燥質量 700.00 kg
総質量 730.00 kg
長さ 0.30 m
直径 4.10 m
スパン 29.00 m
形状 Box + pan
製造者 SPXS
バスタイプ Starlink V2M
フェーズステータス In Orbit
所有者/国 SPXS/US

Most Searched